Time,TemperatureF,DewpointF,PressureIn,WindDirection,WindDirectionDegrees,WindSpeedMPH,WindSpeedGustMPH,Humidity,HourlyPrecipIn,Conditions,Clouds,dailyrainin,SoftwareType,DateUTC
2013-11-02 00:24:00,49.0,43.0,-100.00,West,280,4.0,6.0,81,0.00,,,-99.99,,2013-11-02 04:24:00,
2013-11-02 00:34:00,49.0,43.0,-100.00,West,280,4.0,6.0,81,0.00,,,-99.99,,2013-11-02 04:34:00,
2013-11-02 00:54:00,48.0,43.0,-100.00,WNW,290,4.0,9.0,80,0.00,,,-99.99,,2013-11-02 04:54:00,
2013-11-02 01:22:00,49.0,41.0,-100.00,West,270,4.0,9.0,75,0.00,,,-99.99,,2013-11-02 05:22:00,
2013-11-02 01:52:00,49.0,41.0,-100.00,West,275,1.0,7.0,75,0.00,,,-99.99,,2013-11-02 05:52:00,
2013-11-02 02:22:00,48.0,42.0,-100.00,WSW,245,2.0,3.0,79,0.00,,,-99.99,,2013-11-02 06:22:00,
2013-11-02 02:52:00,48.0,42.0,-100.00,WNW,285,4.0,7.0,80,0.00,,,-99.99,,2013-11-02 06:52:00,
2013-11-02 03:22:00,47.0,41.0,-100.00,WSW,255,2.0,6.0,78,0.00,,,-99.99,,2013-11-02 07:22:00,
2013-11-02 03:52:00,47.0,41.0,-100.00,West,260,3.0,5.0,81,0.00,,,-99.99,,2013-11-02 07:52:00,
2013-11-02 04:02:00,47.0,41.0,-100.00,West,260,3.0,5.0,81,0.00,,,-99.99,,2013-11-02 08:02:00,
2013-11-02 04:22:00,47.0,41.0,-100.00,WSW,250,3.0,7.0,80,0.00,,,-99.99,,2013-11-02 08:22:00,
2013-11-02 04:52:00,47.0,41.0,-100.00,WSW,240,6.0,9.0,79,0.00,,,-99.99,,2013-11-02 08:52:00,
2013-11-02 05:11:00,47.0,41.0,-100.00,WSW,250,6.0,10.0,79,0.00,,,-99.99,,2013-11-02 09:11:00,
2013-11-02 05:21:00,47.0,41.0,-100.00,WSW,250,6.0,10.0,79,0.00,,,-99.99,,2013-11-02 09:21:00,
2013-11-02 05:43:00,46.0,40.0,-100.00,WSW,255,4.0,9.0,77,0.00,,,-99.99,,2013-11-02 09:43:00,
2013-11-02 05:53:00,46.0,40.0,-100.00,WSW,245,4.0,9.0,77,0.00,,,-99.99,,2013-11-02 09:53:00,
2013-11-02 06:23:00,46.0,40.0,-100.00,WSW,255,6.0,10.0,80,0.00,,,-99.99,,2013-11-02 10:23:00,
2013-11-02 06:52:00,46.0,40.0,-100.00,SW,235,4.0,9.0,82,0.00,,,-99.99,,2013-11-02 10:52:00,
2013-11-02 07:02:00,46.0,40.0,-100.00,SW,235,4.0,9.0,82,0.00,,,-99.99,,2013-11-02 11:02:00,
2013-11-02 07:22:00,46.0,40.0,-100.00,WSW,240,6.0,11.0,82,0.00,,,-99.99,,2013-11-02 11:22:00,
2013-11-02 07:52:00,46.0,41.0,-100.00,WSW,245,5.0,11.0,83,0.00,,,-99.99,,2013-11-02 11:52:00,
2013-11-02 08:22:00,46.0,41.0,-100.00,WSW,250,6.0,10.0,83,0.00,,,-99.99,,2013-11-02 12:22:00,
2013-11-02 08:52:00,45.0,41.0,-100.00,WSW,250,6.0,12.0,84,0.00,,,-99.99,,2013-11-02 12:52:00,
2013-11-02 09:12:00,45.0,41.0,-100.00,WSW,240,6.0,9.0,84,0.00,,,-99.99,,2013-11-02 13:12:00,
2013-11-02 09:22:00,45.0,41.0,-100.00,WSW,250,6.0,9.0,85,0.00,,,-99.99,,2013-11-02 13:22:00,
2013-11-02 09:52:00,45.0,41.0,-100.00,WSW,245,6.0,10.0,88,0.00,,,-99.99,,2013-11-02 13:52:00,
2013-11-02 10:21:00,45.0,41.0,-100.00,West,270,6.0,11.0,86,0.00,,,-99.99,,2013-11-02 14:21:00,
2013-11-02 10:52:00,45.0,41.0,-100.00,WSW,250,5.0,9.0,87,0.00,,,-99.99,,2013-11-02 14:52:00,
2013-11-02 11:22:00,45.0,41.0,-100.00,West,275,6.0,12.0,87,0.00,,,-99.99,,2013-11-02 15:22:00,
2013-11-02 11:53:00,46.0,41.0,-100.00,WNW,295,6.0,10.0,82,0.00,,,-99.99,,2013-11-02 15:53:00,
2013-11-02 12:23:00,47.0,41.0,-100.00,West,280,7.0,14.0,78,0.00,,,-99.99,,2013-11-02 16:23:00,
2013-11-02 12:54:00,48.0,40.0,-100.00,West,275,8.0,16.0,73,0.00,,,-99.99,,2013-11-02 16:54:00,
2013-11-02 13:03:00,48.0,40.0,-100.00,West,275,8.0,16.0,73,0.00,,,-99.99,,2013-11-02 17:03:00,
2013-11-02 13:22:00,47.0,39.0,-100.00,WNW,290,10.0,15.0,74,0.00,,,-99.99,,2013-11-02 17:22:00,
2013-11-02 13:53:00,48.0,39.0,-100.00,WNW,295,8.0,19.0,71,0.00,,,-99.99,,2013-11-02 17:53:00,
2013-11-02 14:22:00,48.0,39.0,-100.00,SW,235,7.0,16.0,70,0.00,,,-99.99,,2013-11-02 18:22:00,
2013-11-02 14:52:00,48.0,38.0,-100.00,West,270,6.0,15.0,68,0.00,,,-99.99,,2013-11-02 18:52:00,
2013-11-02 15:22:00,47.0,37.0,-100.00,WSW,250,7.0,15.0,67,0.00,,,-99.99,,2013-11-02 19:22:00,
2013-11-02 15:52:00,48.0,38.0,-100.00,West,270,7.0,16.0,68,0.00,,,-99.99,,2013-11-02 19:52:00,
2013-11-02 16:22:00,49.0,38.0,-100.00,WSW,255,6.0,13.0,67,0.00,,,-99.99,,2013-11-02 20:22:00,
2013-11-02 16:53:00,49.0,38.0,-100.00,West,270,4.0,13.0,66,0.00,,,-99.99,,2013-11-02 20:53:00,
2013-11-02 17:22:00,49.0,38.0,-100.00,West,280,8.0,14.0,66,0.00,,,-99.99,,2013-11-02 21:22:00,
2013-11-02 17:54:00,48.0,38.0,-100.00,WNW,295,12.0,19.0,69,0.00,,,-99.99,,2013-11-02 21:54:00,
2013-11-02 18:13:00,46.0,39.0,-100.00,NNW,330,14.0,21.0,77,0.00,,,-99.99,,2013-11-02 22:13:00,
2013-11-02 19:22:00,42.0,40.0,-100.00,NW,305,4.0,9.0,91,0.00,,,-99.99,,2013-11-02 23:22:00,
2013-11-02 19:34:00,42.0,40.0,-100.00,NW,305,4.0,9.0,91,0.00,,,-99.99,,2013-11-02 23:34:00,
2013-11-02 19:42:00,42.0,40.0,-100.00,NW,305,4.0,9.0,91,0.00,,,-99.99,,2013-11-02 23:42:00,
2013-11-02 19:52:00,42.0,40.0,-100.00,NW,305,6.0,11.0,91,0.00,,,-99.99,,2013-11-02 23:52:00,
2013-11-02 20:22:00,42.0,40.0,-100.00,NW,310,4.0,6.0,94,0.00,,,-99.99,,2013-11-03 00:22:00,
2013-11-02 20:52:00,42.0,41.0,-100.00,WNW,300,4.0,6.0,94,0.00,,,-99.99,,2013-11-03 00:52:00,
2013-11-02 21:22:00,42.0,41.0,-100.00,WNW,285,3.0,8.0,94,0.00,,,-99.99,,2013-11-03 01:22:00,
2013-11-02 21:32:00,42.0,41.0,-100.00,WNW,285,3.0,8.0,94,0.00,,,-99.99,,2013-11-03 01:32:00,
2013-11-02 21:42:00,42.0,41.0,-100.00,WNW,285,3.0,8.0,94,0.00,,,-99.99,,2013-11-03 01:42:00,